Вернуться в каталог

STARLINK-6116

АктивенСвязьVLEO
NORAD 56911·PAYLOAD·🇺🇸 United States

Запущен Jun 12, 2023 с Cape Canaveral Space Force Station

Loading…

Ближайшие Пролёты (ближайшие 24 часа)

TLE

СвежийSource: CelesTrak SupGP

Эпоха: Sep 14, 2026, 20:57 UTC

1 56911C 23083AM  26257.87340278  .00017524  00000+0  63488-3 0  2576
2 56911  43.0012  82.0826 0001163 262.6186  94.2997 15.27561942    15

Отслеживайте STARLINK-6116 в реальном времени с AllMySat

Download on the App Store